Regional Weather Roundup
Issued by NWS

Home | Current Version | Previous Version | Graphics & Text | Print | Product List | Glossary On
Versions: 1 2 3 4 5 6 7 8 9 10 11 12 13 14 15 16 17 18 19 20 21 22 23 24 25 26 27 28 29 30 31 32 33 34 35 36 37 38 39 40 41 42 43 44 45 46 47 48 49 50
000
ASUS44 KMEG 201800
RWRTN
TENNESSEE HOURLY STATE WEATHER ROUNDUP
NATIONAL WEATHER SERVICE MEMPHIS TN
1200 PM CST SAT DEC 20 2014

TNZ002-004-019-021-049-052-054-088>092-201900-
WEST TENNESSEE

CITY           SKY/WX    TMP DP  RH WIND       PRES   REMARKS
MEMPHIS INTL   CLOUDY    47  31  53 NE3       30.26F
NWS MEMPHIS      N/A     47 N/A N/A MISG        N/A
JACKSON        MOSUNNY   47  31  53 NE6       30.26F
DYERSBURG      CLOUDY    43  25  49 CALM      30.28F
UNION CITY     CLOUDY    39  30  70 CALM      30.26F
PARIS          CLOUDY    37  28  70 E3        30.26F
LEXINGTON      CLOUDY    41  27  56 E5        30.25F
SAVANNAH       SUNNY     48  28  46 VRB6      30.24F
$$

TNZ008-025-027-028-033-062-065-066-201900-
NORTH MIDDLE TENNESSEE

CITY           SKY/WX    TMP DP  RH WIND       PRES   REMARKS
NASHVILLE      PTSUNNY   45  27  49 CALM      30.25F
CLARKSVILLE    CLOUDY    38  28  67 VRB3      30.27F
COOKEVILLE     SUNNY     45  28  53 NW3       30.21F
CROSSVILLE     PTSUNNY   44  28  53 VRB3      30.18F
$$

TNZ061-075-076-078-094-096-097-201900-
SOUTH MIDDLE TENNESSEE

CITY           SKY/WX    TMP DP  RH WIND       PRES   REMARKS
FAYETTEVILLE   SUNNY     45  28  53 MISG      30.21F
TULLAHOMA      SUNNY     45  27  49 NE7       30.22F
WINCHESTER     SUNNY     45  30  57 N5        30.21F
SHELBYVILLE    SUNNY     45  28  53 CALM      30.23F
$$

TNZ017-018-042-046-047-201900-
NORTHEAST TENNESSEE

CITY           SKY/WX    TMP DP  RH WIND       PRES   REMARKS
TRI CITIES     CLOUDY    42  36  79 CALM      30.18F
ELIZABETHTON   DRIZZLE   43  34  70 CALM      30.16F
$$

TNZ012-013-036-069-073-074-201900-
CENTRAL EAST TENNESSEE

CITY           SKY/WX    TMP DP  RH WIND       PRES   REMARKS
KNOXVILLE      CLOUDY    41  31  67 CALM      30.20F
OAK RIDGE      CLOUDY    45  32  60 S3        30.22F
GATLINBURG     CLOUDY    39  34  81 CALM      30.19F
$$

TNZ083-085-099-201900-
SOUTHEAST TENNESSEE

CITY           SKY/WX    TMP DP  RH WIND       PRES   REMARKS
CHATTANOOGA    CLOUDY    47  32  56 VRB5      30.21F
$$

SKY/WX REPORTED AS FAIR MEANS FEW OR NO CLOUDS BELOW
12 THOUSAND FEET.




USA.gov is the U.S. government's official web portal to all federal, state and local government web resources and services.